Weather in Aktanyshbash

Russia / Republic of Tatarstan     55°43′11″N   54°01′58″E
temp.,
°C
wind,
m/s
gust,
m/s
humid.,
%
clouds,
%
prec.,
mm/h
press.,
hPa
HPBL,
m
7 may, fri
fri700:00+9ssw3478100 0.0 101748
03:00+9ssw3484100 0.0 101859
06:00+12ssw36745 0.0 1018174
09:00+18ssw575174 0.0 1018915
12:00+19sw6843100 0.0 10182280
15:00+18ssw5846100 0.0 10171626
18:00+16s3562100 0.0 1016104
21:00+14s3563100 0.0 101798
8 may, sat
sat800:00+13s366198 0.0 1017121
03:00+12s366588 0.0 1017121
06:00+14ssw246862 0.0 1017205
09:00+17ssw3555100 0.1 1017893
12:00+18sw2348100 0.1 10171543
15:00+18sw2349100 0.1 10161415
18:00+15ssw346994 0.3 1017100
21:00+12ssw227632 0.3 101721
9 may, sun
sun900:00+11se22803 0.0 101721
03:00+10sse22823 0.0 101710
06:00+13se23703 0.0 1017163
09:00+19se45500 0.0 1017812
12:00+21sse44412 0.0 10162050
15:00+22sse33378 0.0 10162246
18:00+19se225170 0.0 101730
21:00+17ese334910 0.0 101723
10 may, mon
mon1000:00+14ese2356100 0.0 101818
03:00+13ese346148 0.0 101945
06:00+15se376273 0.0 1021205
09:00+20se3443100 0.0 1021657
12:00+23sse223389 0.0 10212048
15:00+23se1131100 0.0 10212190
18:00+20ese2244100 0.0 102212
21:00+18nne1247100 0.0 102326
11 may, tue
tue1100:00+15nne3781100 0.1 1024257
03:00+13nnw359414 0.1 1025126
06:00+13n5687100 0.0 1027483
09:00+15nne4474100 0.0 1028831
12:00+17n346253 0.0 10281138
15:00+19n45444 0.0 10271628
18:00+16nne36515 0.0 1028170
21:00+11nne355033 0.0 102973